Weather History for PAFM - November, 2011

Change the Weather History Date:

Sunday, November 27, 2011

  Actual Average Record
Temperature  
Mean Temperature -17 °F -  
Max Temperature -9 °F 6 °F 33 °F (2002)
Min Temperature -25 °F 0 °F -49 °F (1986)
Degree Days  
Heating Degree Days 82    
Moisture  
Dew Point -24 °F    
Average Humidity 65    
Maximum Humidity 92    
Minimum Humidity 48    
Precipitation  
Precipitation 0.00 in - - ()
Sea Level Pressure  
Sea Level Pressure 29.71 in    
Wind  
Wind Speed 3 mph (NE)    
Max Wind Speed 8 mph    
Max Gust Speed -    
Visibility 10 miles    
Events      
Averages and records for this station are not official NWS values.
T = Trace of Precipitation, MM = Missing Value Source: NWS Daily Summary

Daily Weather History Graph

Daily Weather History Graph

Search for Another Location

Airport or City:

Trip Planner

Search our weather history database for the weather conditions in past years. The results will help you decide how hot, cold, wet, or windy it might be!

Date:

Astronomy

Nov. 27, 2011 Rise Set
Actual Time 11:24 AM AKST 3:13 PM AKST
Civil Twilight 9:54 AM AKST 4:42 PM AKST
Nautical Twilight 8:39 AM AKST 5:58 PM AKST
Astronomical Twilight 7:33 AM AKST 7:03 PM AKST
Moon 2:10 PM AKST (11/27) 5:58 PM AKST (11/27)
Length of Visible Light 6h 47m
Length of Day
3h 49m
Waxing Crescent, 9% of the Moon is Illuminated
Nov 27
Waxing Crescent
Dec 2
First Quarter
Dec 10
Full
Dec 17
Last Quarter
Dec 24
New

Hourly Weather History & Observations

Time (AKST) Temp. Windchill Dew Point Humidity Pressure Visibility Wind Dir Wind Speed Gust Speed Precip Events Conditions
12:16 AM -25.6 °F - - N/A% 29.78 in 10.0 mi Calm Calm - N/A   Overcast
12:36 AM -25.6 °F - - N/A% 29.78 in 10.0 mi Calm Calm - N/A   Overcast
12:56 AM -25.6 °F - - N/A% 29.77 in 10.0 mi Calm Calm - N/A   Overcast
1:16 AM -23.8 °F - - N/A% 29.77 in 10.0 mi Calm Calm - N/A   Overcast
1:36 AM -23.8 °F - - N/A% 29.77 in 10.0 mi Calm Calm - N/A   Overcast
1:56 AM -23.8 °F - - N/A% 29.76 in 10.0 mi Calm Calm - N/A   Overcast
2:16 AM -20.2 °F - -27.4 °F 69% 29.76 in 10.0 mi Calm Calm - N/A   Mostly Cloudy
2:36 AM -20.2 °F - -27.4 °F 69% 29.75 in 10.0 mi Calm Calm - N/A   Mostly Cloudy
2:56 AM -20.2 °F - - N/A% 29.75 in 10.0 mi Calm Calm - N/A   Overcast
3:16 AM -23.8 °F - - N/A% 29.76 in 10.0 mi Calm Calm - N/A   Scattered Clouds
3:36 AM -23.8 °F - - N/A% 29.75 in 10.0 mi Calm Calm - N/A   Clear
3:56 AM -22.0 °F - -29.2 °F 69% 29.74 in 10.0 mi Calm Calm - N/A   Clear
4:16 AM -20.2 °F -33.5 °F -27.4 °F 69% 29.74 in 10.0 mi North 4.6 mph - N/A   Scattered Clouds
4:36 AM -18.4 °F -33.4 °F -25.6 °F 70% 29.74 in 10.0 mi NNE 5.8 mph - N/A   Scattered Clouds
4:56 AM -18.4 °F -31.4 °F -25.6 °F 70% 29.73 in 10.0 mi NNE 4.6 mph - N/A   Partly Cloudy
5:16 AM -16.6 °F -26.8 °F -25.6 °F 64% 29.73 in 10.0 mi NE 3.5 mph - N/A   Clear
5:36 AM -18.4 °F -31.4 °F -27.4 °F 63% 29.73 in 10.0 mi NE 4.6 mph - N/A   Clear
5:56 AM -18.4 °F - -25.6 °F 70% 29.72 in 10.0 mi Calm Calm - N/A   Clear
6:16 AM -16.6 °F -31.3 °F -25.6 °F 64% 29.72 in 10.0 mi NNE 5.8 mph - N/A   Clear
6:36 AM -16.6 °F -31.3 °F -23.8 °F 70% 29.72 in 10.0 mi NNE 5.8 mph - N/A   Clear
6:56 AM -16.6 °F -31.3 °F -23.8 °F 70% 29.72 in 10.0 mi NE 5.8 mph - N/A   Partly Cloudy
7:16 AM -16.6 °F -32.9 °F -27.4 °F 58% 29.72 in 10.0 mi NE 6.9 mph - N/A   Partly Cloudy
7:36 AM -16.6 °F -31.3 °F -25.6 °F 64% 29.71 in 10.0 mi NNE 5.8 mph - N/A   Clear
7:56 AM -16.6 °F -29.3 °F -25.6 °F 64% 29.71 in 10.0 mi NE 4.6 mph - N/A   Clear
8:16 AM -16.6 °F -32.9 °F -25.6 °F 64% 29.70 in 10.0 mi NNE 6.9 mph - N/A   Clear
8:36 AM -14.8 °F -29.1 °F -20.2 °F 77% 29.70 in 10.0 mi NE 5.8 mph - N/A   Scattered Clouds
8:56 AM -14.8 °F -29.1 °F -27.4 °F 53% 29.69 in 10.0 mi NNE 5.8 mph - N/A   Partly Cloudy
9:16 AM -14.8 °F -27.2 °F -23.8 °F 64% 29.69 in 10.0 mi NE 4.6 mph - N/A   Clear
9:36 AM -14.8 °F -29.1 °F -23.8 °F 64% 29.69 in 10.0 mi NNE 5.8 mph - N/A   Clear
9:56 AM -14.8 °F -30.8 °F -25.6 °F 58% 29.69 in 10.0 mi NNE 6.9 mph - N/A   Clear
10:16 AM -14.8 °F -29.1 °F -20.2 °F 77% 29.69 in 10.0 mi NE 5.8 mph - N/A   Clear
10:36 AM -14.8 °F -30.8 °F -25.6 °F 58% 29.68 in 10.0 mi NNE 6.9 mph - N/A   Clear
10:56 AM -13.0 °F -27.0 °F -20.2 °F 70% 29.69 in 10.0 mi NE 5.8 mph - N/A   Clear
11:16 AM -14.8 °F -24.8 °F -25.6 °F 58% 29.69 in 10.0 mi NE 3.5 mph - N/A   Clear
11:36 AM -18.4 °F - - N/A% 29.69 in 10.0 mi Calm Calm - N/A   Clear
11:56 AM -16.6 °F -31.3 °F - N/A% 29.68 in 10.0 mi NNE 5.8 mph - N/A   Clear
12:16 PM -14.8 °F - -16.6 °F 92% 29.68 in 10.0 mi Calm Calm - N/A   Clear
12:36 PM -14.8 °F -27.2 °F -29.2 °F 48% 29.69 in 10.0 mi NE 4.6 mph - N/A   Clear
12:56 PM -16.6 °F - -23.8 °F 70% 29.68 in 10.0 mi Calm Calm - N/A   Clear
1:16 PM -16.6 °F -31.3 °F - N/A% 29.68 in 10.0 mi NE 5.8 mph - N/A   Clear
1:36 PM -13.0 °F -27.0 °F -16.6 °F 84% 29.68 in 10.0 mi NNE 5.8 mph - N/A   Clear
1:56 PM -11.2 °F -27.8 °F -22.0 °F 59% 29.67 in 10.0 mi NNE 8.1 mph - N/A   Clear
2:16 PM -11.2 °F -27.8 °F -20.2 °F 64% 29.68 in 10.0 mi NE 8.1 mph - N/A   Clear
2:36 PM -11.2 °F -23.0 °F -22.0 °F 59% 29.68 in 10.0 mi NE 4.6 mph - N/A   Clear
2:56 PM -11.2 °F -26.4 °F -20.2 °F 64% 29.68 in 10.0 mi NNE 6.9 mph - N/A   Clear
3:16 PM -11.2 °F -27.8 °F -20.2 °F 64% 29.67 in 10.0 mi NNE 8.1 mph - N/A   Clear
3:36 PM -11.2 °F -23.0 °F -23.8 °F 54% 29.67 in 10.0 mi NE 4.6 mph - N/A   Clear
3:56 PM -11.2 °F -24.8 °F -22.0 °F 59% 29.67 in 10.0 mi NE 5.8 mph - N/A   Clear
4:16 PM -13.0 °F -27.0 °F -23.8 °F 59% 29.67 in 10.0 mi NE 5.8 mph - N/A   Clear
4:36 PM -11.2 °F -27.8 °F -20.2 °F 64% 29.67 in 10.0 mi NNE 8.1 mph - N/A   Clear
4:56 PM -11.2 °F -26.4 °F -20.2 °F 64% 29.67 in 10.0 mi NNE 6.9 mph - N/A   Clear
5:16 PM -11.2 °F -24.8 °F -20.2 °F 64% 29.67 in 10.0 mi NE 5.8 mph - N/A   Clear
5:36 PM -9.4 °F -24.3 °F -20.2 °F 59% 29.67 in 10.0 mi NE 6.9 mph - N/A   Clear
5:56 PM -11.2 °F -27.8 °F -20.2 °F 64% 29.66 in 10.0 mi NNE 8.1 mph - N/A   Clear
6:16 PM -11.2 °F -27.8 °F -20.2 °F 64% 29.66 in 10.0 mi NE 8.1 mph - N/A   Clear
6:36 PM -9.4 °F -24.3 °F -20.2 °F 59% 29.66 in 10.0 mi NNE 6.9 mph - N/A   Clear
6:56 PM -11.2 °F -27.8 °F -20.2 °F 64% 29.66 in 10.0 mi NNE 8.1 mph - N/A   Clear
7:16 PM -11.2 °F -26.4 °F -20.2 °F 64% 29.66 in 10.0 mi NNE 6.9 mph - N/A   Clear
7:36 PM -11.2 °F -29.0 °F -20.2 °F 64% 29.66 in 10.0 mi NNE 9.2 mph - N/A   Clear
8:16 PM -11.2 °F -26.4 °F -20.2 °F 64% 29.66 in 10.0 mi NNE 6.9 mph - N/A   Clear
8:36 PM -11.2 °F -26.4 °F -22.0 °F 59% 29.66 in 10.0 mi NNE 6.9 mph - N/A   Clear
8:56 PM -11.2 °F -27.8 °F -20.2 °F 64% 29.66 in 10.0 mi NNE 8.1 mph - N/A   Clear
9:16 PM -9.4 °F -26.8 °F -20.2 °F 59% 29.65 in 10.0 mi NNE 9.2 mph - N/A   Clear
9:36 PM -11.2 °F -26.4 °F -23.8 °F 54% 29.66 in 10.0 mi NNE 6.9 mph - N/A   Clear
9:56 PM -11.2 °F -29.0 °F -22.0 °F 59% 29.66 in 10.0 mi NNE 9.2 mph - N/A   Clear
10:16 PM -11.2 °F -26.4 °F -23.8 °F 54% 29.66 in 10.0 mi NNE 6.9 mph - N/A   Clear
10:36 PM -11.2 °F -27.8 °F -20.2 °F 64% 29.66 in 10.0 mi NE 8.1 mph - N/A   Clear
10:56 PM -11.2 °F -30.1 °F -22.0 °F 59% 29.66 in 10.0 mi NE 10.4 mph - N/A   Clear
11:16 PM -11.2 °F -27.8 °F -23.8 °F 54% 29.66 in 10.0 mi NE 8.1 mph - N/A   Clear
11:36 PM -11.2 °F -26.4 °F -22.0 °F 59% 29.66 in 10.0 mi NE 6.9 mph - N/A   Clear
11:56 PM -11.2 °F -27.8 °F -22.0 °F 59% 29.66 in 10.0 mi NNE 8.1 mph - N/A   Clear